NORTHEAST BAY GARDENE NEAR POINT LA US USGS current weather conditions

sailwx.info

Wind from 174 at 5 knots

Last reported at 2020-Sep-27 22:00 UTC.
Time now 2020-Sep-27 23:27 UTC

Location: N 29°35' W 089°36'.
View on Google Maps.

See reports from other nearby stations

  
Tides and Currents Weather Stations Pressure Air Temp Water Temp Dewpoint Dewpoint Depression Visibility Wind Speed Wind Dir Waves Ship Positions
date/time (UTC)wind fromknots sea level pressurealtimeterstation pressurevisibilityair tempwater tempwave heightnotes
2020-Sep-27 22:00 174 5
2020-Sep-27 21:00 141 5
2020-Sep-27 20:00 120 7
2020-Sep-27 19:00 110 7
2020-Sep-27 18:00 092 1
2020-Sep-27 17:00 300 2
2020-Sep-27 16:00 308 4
2020-Sep-27 15:00 292 4
2020-Sep-27 14:00 264 2
2020-Sep-27 13:00 257 4
2020-Sep-27 12:00 259 4
2020-Sep-27 11:00 249 4
2020-Sep-27 10:00 196 8
2020-Sep-27 09:00 196 7
2020-Sep-27 08:00 192 9
2020-Sep-27 07:00 168 10
2020-Sep-27 06:00 169 8
2020-Sep-27 05:00 170 10
2020-Sep-27 04:00 162 10
2020-Sep-27 03:00 174 8
2020-Sep-27 02:00 162 6
2020-Sep-27 01:00 165 7
2020-Sep-27 00:00 183 7
2020-Sep-26 23:00 199 7
2020-Sep-26 22:00 148 1
2020-Sep-26 21:00 029 1
2020-Sep-26 20:00 292 0
2020-Sep-26 19:00 070 3
2020-Sep-26 18:00 048 10
2020-Sep-26 17:00 045 10
2020-Sep-26 16:00 058 10
2020-Sep-26 15:00 056 13
2020-Sep-26 14:00 053 11
2020-Sep-26 13:00 045 11
2020-Sep-26 12:00 048 12
2020-Sep-26 11:00 026 9
2020-Sep-26 10:00 062 7
2020-Sep-26 09:00 074 8
2020-Sep-26 08:00 097 8
2020-Sep-26 07:00 094 6
2020-Sep-26 06:00 099 8
2020-Sep-26 05:00 092 8
2020-Sep-26 04:00 089 7
2020-Sep-26 03:00 059 6
2020-Sep-26 02:00 083 5
2020-Sep-26 01:00 048 6
2020-Sep-26 00:00 073 6
2020-Sep-25 23:00 093 7